RH
69 66 66 65 68 72 79 80 80 79 80 81 79 80 79 79 77 80 79 77 74 72 66 71 75 76 76 74 76 75 78 87 94 79 79 72 73 72 72 68 71 71 72
70 70 68 66 68 71 73 77 80 80 80 79 79 81 81 80 78 81 83 80 79 76 70 76 76 70 75 70 75 74 77 76 86 87 77 73 73 75 76 73 69 70 70
68 73 72 71 68 68 70 73 78 81 80 78 81 83 81 81 80 81 81 82 79 78 75 77 77 82 78 80 80 80 76 73 82 87 81 75 72 74 77 78 74 75 68
70 74 76 75 74 71 69 73 78 78 82 82 82 83 84 81 82 81 83 84 81 78 81 81 81 81 81 78 75 76 77 82 82 84 83 81 79 77 83 82 81 77 79
64 69 70 74 76 77 77 77 78 81 82 84 85 85 84 84 80 82 84 83 82 79 80 79 80 85 93 88 83 81 83 86 87 85 84 82 85 84 83 80 79 77 84
63 64 65 72 74 77 77 77 78 81 83 86 87 87 85 82 85 88 86 85 84 83 82 76 74 88 85 89 86 83 89 85 86 88 85 84 78 87 89 84 83 85 81
64 62 64 69 74 76 76 77 79 80 80 83 83 83 83 82 86 86 88 86 88 86 84 83 80 72 85 82 85 85 87 88 87 84 80 83 78 80 89 86 83 82 76
64 64 64 71 73 74 77 78 77 76 78 77 77 78 81 77 82 83 87 85 88 88 87 85 84 80 76 85 85 85 82 82 88 83 84 81 83 83 84 73 69 70 70
60 60 62 70 73 74 76 76 75 74 73 72 74 73 76 73 79 81 85 87 88 86 85 85 84 83 81 82 90 93 86 84 82 84 84 84 84 83 74 71 71 66 56
62 64 65 75 77 76 76 77 76 75 75 75 72 72 73 74 75 77 79 85 86 82 79 82 87 84 84 81 85 91 90 81 78 83 85 82 79 78 76 66 65 77 68
65 68 69 71 74 73 76 75 75 76 78 76 77 72 74 74 72 76 76 81 85 80 80 77 77 81 81 82 84 91 89 78 77 84 88 89 84 82 81 76 69 79 83
70 72 69 65 63 62 73 72 74 76 77 76 77 76 71 69 76 76 76 77 79 87 82 75 76 80 81 82 81 82 90 87 82 81 87 89 90 91 87 83 78 78 74
70 73 72 72 72 74 77 76 76 77 80 79 80 80 75 73 73 79 78 77 78 81 85 86 87 86 84 82 84 85 87 84 89 94 94 92 92 89 93 90 85 82 91
78 76 76 80 78 81 82 82 82 81 80 80 80 81 79 79 78 77 77 76 77 76 79 83 86 88 90 87 85 84 88 86 89 90 88 84 85 90 90 88 92 91 90
81 82 82 81 83 83 82 80 80 80 84 86 85 85 87 86 81 79 81 85 81 78 79 81 82 89 90 94 92 90 88 91 94 88 87 86 84 86 88 90 91 92 89
80 74 74 77 79 84 83 80 78 81 83 86 88 91 90 89 88 89 90 89 87 86 93 93 90 88 89 87 88 87 89 90 90 91 91 90 89 89 89 93 93 92 89
82 79 76 76 79 79 78 84 86 76 79 81 81 82 83 83 86 87 86 86 81 81 91 88 90 90 90 90 90 91 93 90 95 97 95 93 92 90 89 92 93 92 91
83 83 82 79 81 80 81 83 86 87 84 79 74 76 78 81 85 86 82 81 87 81 93 94 93 89 92 94 95 96 94 94 96 95 96 96 95 93 93 91 91 91 90
88 85 84 87 88 86 84 85 83 83 82 81 79 76 76 83 79 79 80 87 87 86 86 89 89 91 93 96 95 96 97 98 96 96 95 94 94 94 93 89 88 84 85
88 86 84 88 91 89 88 88 85 84 82 84 83 81 79 81 85 81 84 85 87 87 87 88 88 90 92 94 96 99 100 99 99 99 97 96 95 97 97 96 95 96 95
89 89 86 85 93 92 92 92 90 89 88 86 84 80 79 85 87 88 87 88 88 87 88 90 92 94 94 93 98 100 100 100 100 100 100 99 98 97 95 96 96 96 96
91 91 92 93 83 80 80 80 81 84 88 90 87 84 82 84 89 90 90 90 88 88 89 91 94 95 96 96 99 100 100 100 100 100 99 99 99 98 97 96 96 95 95
89 81 81 83 85 82 74 69 74 77 84 82 85 88 87 88 87 89 89 88 89 92 92 94 95 95 94 97 100 100 100 99 99 100 99 99 99 98 97 96 95 95 95
86 80 75 72 78 86 87 78 68 74 80 86 88 89 89 88 88 88 88 89 92 91 92 93 93 95 94 98 100 100 100 99 100 100 100 99 98 96 97 96 94 95 95
86 81 76 72 81 86 86 87 86 83 84 86 91 95 97 96 98 95 92 93 94 95 94 92 94 95 96 100 100 100 100 99 99 98 99 99 99 98 97 96 94 95 95
87 80 73 73 82 83 85 92 97 97 97 93 97 97 98 98 98 96 97 98 98 95 95 94 94 95 96 99 100 99 96 95 96 95 99 98 98 97 96 96 96 95 95
Wind_Speed
6 6 7 7 8 7 7 8 9 8 7 7 7 6 6 5 4 4 5 6 5 6 7 7 7 6 4 3 2 3 3 2 4 3 2 2 2 4 4 5 6 6 7
6 6 7 7 7 8 9 9 8 9 7 7 6 6 6 5 5 4 5 5 5 7 6 5 7 4 6 5 3 4 3 4 3 7 5 3 3 3 2 4 4 5 5
5 5 6 8 8 9 9 9 9 9 8 7 6 7 6 6 6 6 5 6 6 7 7 7 6 6 6 3 4 4 3 3 4 4 6 4 4 2 2 1 2 4 4
6 6 7 7 8 9 9 9 9 8 8 8 7 7 7 6 7 7 6 6 7 7 7 7 8 7 7 6 5 4 4 4 4 4 5 4 4 1 0 1 2 1 1
8 7 8 7 7 7 8 8 8 8 8 8 8 8 8 8 7 8 8 8 8 8 8 8 8 7 8 7 4 5 5 4 4 4 3 3 3 2 2 2 2 1 1
8 9 8 7 6 7 7 7 8 8 8 8 9 9 9 7 12 14 11 8 9 9 9 9 8 9 9 10 9 10 7 5 6 2 3 6 6 2 1 2 2 1 2
9 10 9 7 7 7 6 6 8 8 7 9 9 9 11 10 14 16 14 9 9 10 10 9 8 6 8 7 9 9 10 10 8 5 5 6 7 3 1 3 3 2 2
9 9 9 7 7 6 6 7 7 5 7 8 8 9 9 9 13 16 15 10 9 11 10 10 10 10 9 8 8 8 8 7 6 5 6 6 5 3 5 1 1 2 2
9 10 10 9 9 7 6 6 6 5 6 7 7 8 9 10 13 15 12 8 9 11 9 10 10 11 13 14 10 10 9 8 7 11 9 8 7 7 5 3 3 3 2
10 11 11 8 7 7 6 7 4 4 6 4 7 8 10 10 12 14 12 6 9 8 8 10 16 14 16 16 11 10 11 9 6 6 6 8 9 8 8 5 3 3 2
10 10 10 8 6 6 6 3 5 6 6 7 7 7 8 9 10 14 15 8 7 7 7 7 7 16 18 18 17 10 11 6 6 6 6 6 5 6 5 5 5 4 3
9 10 9 8 6 6 6 6 6 6 7 7 7 7 6 7 10 13 15 16 13 8 9 7 8 12 15 16 14 16 17 12 5 5 5 7 7 7 6 6 6 5 4
10 9 8 8 7 6 6 7 6 5 5 6 5 6 6 4 5 10 13 14 14 10 7 11 15 13 14 13 16 15 14 9 6 6 7 6 7 5 3 3 4 4 3
10 10 8 7 9 6 4 4 5 5 5 5 5 6 6 5 5 4 4 4 7 7 8 6 7 11 11 10 8 8 6 7 7 7 7 5 3 3 5 5 5 5 3
7 7 7 6 7 7 5 5 5 5 6 5 5 4 5 6 4 6 6 4 4 6 6 2 3 3 6 6 5 6 6 6 7 7 6 6 5 5 5 5 4 4 6
10 8 7 7 6 6 6 7 7 12 13 11 12 10 6 12 15 14 12 11 11 11 4 4 6 5 6 6 6 6 7 10 8 8 7 7 7 7 7 6 5 7 7
8 9 7 7 6 6 6 5 8 6 9 11 10 9 10 11 13 11 11 10 11 8 5 7 7 7 8 6 6 6 7 7 7 7 8 8 8 7 10 8 8 8 8
8 14 7 7 6 6 5 5 4 5 7 7 6 9 11 15 14 12 11 9 4 3 3 5 5 6 6 6 6 6 6 6 6 7 8 8 8 8 7 8 9 10 9
8 7 7 7 6 7 6 6 6 6 7 7 7 8 10 14 14 14 14 6 6 5 5 5 6 6 6 5 6 6 7 6 7 7 7 8 8 8 9 9 9 16 14
7 14 12 7 7 7 6 6 7 7 8 8 8 10 5 4 4 5 5 5 6 6 6 6 6 6 6 6 6 7 6 7 7 7 8 8 8 8 9 9 9 9 11
7 9 16 8 7 7 8 8 8 8 9 9 10 9 15 9 8 7 6 6 6 6 6 5 5 5 5 7 7 7 7 7 7 7 7 7 8 7 9 8 9 9 8
7 8 8 8 10 10 10 10 11 11 11 10 11 11 18 9 7 8 7 7 7 7 6 5 5 6 6 6 7 7 7 8 7 7 8 8 8 8 7 7 8 8 9
8 11 11 11 10 15 10 10 11 11 10 12 12 11 9 8 7 7 7 7 6 6 5 5 6 6 6 7 7 7 7 8 7 7 7 7 7 7 7 8 8 7 9
8 9 10 10 9 10 11 12 10 13 12 11 11 10 10 9 8 8 7 6 5 6 6 6 6 8 7 7 7 7 7 7 7 8 10 8 7 9 7 7 8 10 9
9 10 10 10 10 10 12 12 12 11 11 11 10 10 9 9 8 7 6 6 6 5 7 6 6 8 10 12 11 11 10 14 10 10 7 8 9 10 8 7 8 7 9
10 11 10 9 10 11 11 11 12 11 10 10 10 9 9 8 8 7 6 6 5 6 7 6 7 11 11 10 10 11 16 18 14 15 8 7 7 6 7 8 11 8 9
Wind_Direction
284 273 257 252 247 242 241 248 251 255 252 255 256 259 263 273 278 280 284 291 299 291 285 280 284 276 282 295 311 329 319 315 283 297 288 330 328 355 20 42 38 46 55
301 290 269 262 254 249 246 245 244 246 243 241 247 250 256 261 264 263 270 278 283 283 285 277 274 267 261 264 247 288 298 301 290 293 303 313 321 3 35 49 46 50 50
312 306 296 279 266 256 250 250 247 245 240 241 237 242 245 249 253 250 253 265 271 275 285 271 269 270 269 264 278 271 236 241 239 255 281 288 298 268 204 134 90 80 78
316 309 296 285 270 260 256 249 243 240 243 238 233 237 240 243 243 247 246 249 259 266 274 280 284 288 286 295 285 287 292 285 271 258 259 258 240 249 255 297 236 92 58
309 303 293 287 281 264 255 250 247 239 236 235 238 234 236 236 236 234 237 240 246 258 263 266 269 275 280 266 274 283 284 276 278 281 288 307 324 321 324 348 295 323 106
309 302 299 292 285 272 262 253 250 249 244 241 241 239 240 237 233 233 233 234 239 245 258 265 267 270 269 264 262 261 251 263 273 248 280 277 279 240 240 290 285 280 266
315 310 306 299 289 282 274 263 256 250 247 246 247 243 247 244 239 243 241 237 237 242 247 254 262 258 260 257 260 264 254 231 232 265 255 254 275 255 141 254 235 234 248
316 313 316 310 294 291 282 268 263 255 252 254 256 251 254 258 249 248 246 241 240 241 240 244 250 259 255 250 252 253 256 254 234 229 242 253 258 231 217 246 229 238 256
323 322 321 319 308 303 289 280 273 266 259 247 239 250 250 262 249 249 245 241 245 249 240 237 237 247 247 247 243 245 252 250 232 223 237 239 228 202 195 178 215 215 225
328 320 315 312 304 302 298 296 281 249 252 247 265 257 259 263 261 252 247 237 244 249 247 244 241 240 246 244 238 237 247 249 226 219 235 237 216 200 192 216 197 220 218
315 315 313 312 305 291 293 272 280 282 279 281 276 274 259 248 262 262 255 240 240 253 252 258 245 243 249 245 237 227 234 235 231 219 230 229 211 210 208 211 212 207 201
312 314 314 311 306 299 293 293 290 287 284 280 281 284 270 268 264 268 261 249 240 236 246 252 257 250 251 249 242 242 236 231 215 219 224 234 228 228 223 216 214 216 228
317 312 311 313 309 305 307 304 305 297 283 284 281 282 286 285 279 270 273 271 265 255 244 249 256 256 256 256 245 241 236 233 213 217 228 231 221 226 192 192 208 225 235
310 313 314 314 318 315 305 291 293 291 288 280 280 279 285 289 286 280 264 266 269 263 264 261 258 254 245 246 247 243 228 224 218 224 232 229 196 188 203 190 194 192 226
309 295 301 305 306 308 293 285 283 266 251 277 274 267 285 292 276 277 284 274 259 250 264 232 242 235 246 246 234 228 223 217 215 215 218 217 211 206 212 188 201 186 213
327 331 322 315 314 310 311 312 276 275 285 281 274 262 268 259 277 286 286 284 285 281 267 245 257 249 243 244 240 238 225 223 220 217 217 215 217 211 209 192 197 209 220
310 310 309 312 307 310 315 314 318 318 280 287 290 284 285 277 287 283 282 288 291 290 258 271 271 271 271 256 248 240 239 224 221 221 223 222 219 214 207 202 199 206 218
309 307 295 300 297 299 294 290 280 288 304 305 272 272 281 286 273 267 277 288 279 257 240 253 262 272 260 250 240 237 237 233 220 225 223 223 217 216 211 210 203 201 204
302 300 299 292 288 286 284 277 269 267 265 275 290 272 243 263 277 267 261 237 250 253 246 250 251 255 255 247 250 245 238 236 230 228 225 223 219 213 217 216 209 207 195
290 292 299 293 292 292 281 273 276 271 270 267 271 276 285 259 257 252 234 240 240 247 247 242 245 251 256 254 252 250 242 239 240 230 226 224 221 214 220 215 210 207 205
290 292 294 296 296 295 295 291 284 278 275 274 271 271 266 262 265 251 249 243 244 246 244 237 235 238 249 264 254 249 244 243 236 236 234 225 222 220 216 214 210 208 204
280 284 288 285 297 297 298 297 298 296 291 285 283 277 271 260 254 254 247 244 242 237 233 233 238 237 230 235 248 252 251 250 243 237 237 234 227 222 213 207 204 203 200
284 297 297 294 288 287 291 290 290 291 285 284 280 279 271 256 252 247 246 244 237 232 229 222 236 246 245 243 241 243 249 252 247 244 242 239 230 219 208 206 201 198 198
278 281 282 285 283 281 282 289 289 279 276 275 277 274 271 264 256 249 246 245 237 234 231 232 236 245 254 252 248 243 239 254 255 250 247 243 234 218 204 200 200 201 195
275 280 278 287 283 282 284 279 277 280 276 273 273 269 265 258 253 252 250 244 242 238 242 240 240 244 252 255 256 253 249 251 254 250 244 236 236 213 203 201 194 189 182
278 279 280 281 276 277 280 284 284 280 275 277 275 269 262 255 253 249 240 235 242 244 243 244 248 252 258 260 259 265 273 274 268 260 245 230 223 202 190 187 181 179 174